H1 CPF 2 NER 2025 9 2 9 245 01 glonass139 H2 1808601 9139 43687 2025 9 2 0 0 0 2025 9 5 23 45 0 900 1 1 0 0 0 1 H9 10 0 60920 0.00000 0 -19037480.326 -6529473.942 -15655851.262 10 0 60920 900.00000 0 -20484207.349 -7574039.694 -13165914.664 10 0 60920 1800.00000 0 -21738407.413 -8326242.902 -10420020.728 10 0 60920 2700.00000 0 -22743917.209 -8803723.700 -7471611.640 10 0 60920 3600.00000 0 -23451412.393 -9035229.458 -4378035.047 10 0 60920 4500.00000 0 -23820511.994 -9059136.821 -1199423.250 10 0 60920 5400.00000 0 -23821524.624 -8921574.979 2002479.501 10 0 60920 6300.00000 0 -23436763.414 -8674231.037 5165518.296 10 0 60920 7200.00000 0 -22661374.884 -8371931.459 8228333.664 10 0 60920 8100.00000 0 -21503647.524 -8070102.696 11131548.930 10 0 60920 9000.00000 0 -19984787.673 -7822218.725 13818915.902 10 0 60920 9900.00000 0 -18138172.565 -7677343.391 16238397.012 10 0 60920 10800.00000 0 -16008112.026 -7677871.026 18343163.681 10 0 60920 11700.00000 0 -13648170.518 -7857560.166 20092492.502 10 0 60920 12600.00000 0 -11119119.150 -8239942.678 21452542.974 10 0 60920 13500.00000 0 -8486602.197 -8837174.774 22397002.936 10 0 60920 14400.00000 0 -5818614.044 -9649378.009 22907590.297 10 0 60920 15300.00000 0 -3182890.024 -10664498.025 22974402.281 10 0 60920 16200.00000 0 -644317.861 -11858687.469 22596106.041 10 0 60920 17100.00000 0 1737524.562 -13197198.017 21779967.179 10 0 60920 18000.00000 0 3910604.504 -14635745.348 20541715.433 10 0 60920 18900.00000 0 5832351.414 -16122291.484 18905249.538 10 0 60920 19800.00000 0 7471177.269 -17599171.468 16902186.001 10 0 60920 20700.00000 0 8807537.831 -19005476.836 14571259.360 10 0 60920 21600.00000 0 9834491.194 -20279597.299 11957584.209 10 0 60920 22500.00000 0 10557730.646 -21361814.978 9111791.987 10 0 60920 23400.00000 0 10995090.584 -22196842.703 6089058.158 10 0 60920 24300.00000 0 11175546.244 -22736199.690 2948037.769 10 0 60920 25200.00000 0 11137749.315 -22940324.076 -250270.466 10 0 60920 26100.00000 0 10928161.203 -22780332.380 -3443709.614 10 0 60920 27000.00000 0 10598862.980 -22239350.424 -6570176.222 10 0 60920 27900.00000 0 10205134.997 -21313358.088 -9568834.162 10 0 60920 28800.00000 0 9802909.247 -20011510.651 -12381306.180 10 0 60920 29700.00000 0 9446203.169 -18355921.633 -14952819.048 10 0 60920 30600.00000 0 9184644.590 -16380914.846 -17233279.081 10 0 60920 31500.00000 0 9061193.734 -14131775.967 -19178256.186 10 0 60920 32400.00000 0 9110159.843 -11663055.162 -20749856.548 10 0 60920 33300.00000 0 9355597.421 -9036491.343 -21917466.458 10 0 60920 34200.00000 0 9810150.870 -6318644.630 -22658352.404 10 0 60920 35100.00000 0 10474397.152 -3578335.851 -22958105.652 10 0 60920 36000.00000 0 11336714.869 -883999.912 -22810922.650 10 0 60920 36900.00000 0 12373685.718 1698936.578 -22219715.921 10 0 60920 37800.00000 0 13551011.638 4110544.288 -21196053.536 10 0 60920 38700.00000 0 14824909.100 6298643.380 -19759928.571 10 0 60920 39600.00000 0 16143921.662 8220725.646 -17939363.370 10 0 60920 40500.00000 0 17451074.252 9845467.375 -15769856.666 10 0 60920 41400.00000 0 18686278.112 11153771.049 -13293684.692 10 0 60920 42300.00000 0 19788884.755 12139293.915 -10559070.376 10 0 60920 43200.00000 0 20700280.970 12808443.189 -7619237.294 10 0 60920 44100.00000 0 21366415.301 13179840.154 -4531367.375 10 0 60920 45000.00000 0 21740149.343 13283277.776 -1355483.275 10 0 60920 45900.00000 0 21783334.797 13158217.794 1846722.269 10 0 60920 46800.00000 0 21468528.939 12851892.432 5013086.802 10 0 60920 47700.00000 0 20780276.521 12417092.373 8082184.531 10 0 60920 48600.00000 0 19715904.578 11909735.459 10994515.097 10 0 60920 49500.00000 0 18285797.082 11386319.454 13693651.821 10 0 60920 50400.00000 0 16513138.204 10901366.596 16127327.465 10 0 60920 51300.00000 0 14433135.067 10504967.584 18248437.180 10 0 60920 52200.00000 0 12091752.342 10240528.035 20015940.140 10 0 60920 53100.00000 0 9544011.058 10142811.639 21395643.482 10 0 60920 54000.00000 0 6851921.734 10236361.630 22360854.535 10 0 60920 54900.00000 0 4082136.639 10534366.310 22892889.854 10 0 60920 55800.00000 0 1303417.356 11038015.895 22981432.103 10 0 60920 56700.00000 0 -1415978.902 11736377.651 22624728.529 10 0 60920 57600.00000 0 -4010887.560 12606794.953 21829627.423 10 0 60920 58500.00000 0 -6421693.822 13615794.303 20611451.719 10 0 60920 59400.00000 0 -8596558.357 14720463.401 18993711.583 10 0 60920 60300.00000 0 -10493320.425 15870243.830 17007660.622 10 0 60920 61200.00000 0 -12081000.320 17009064.507 14691703.137 10 0 60920 62100.00000 0 -13340839.282 18077727.676 12090662.575 10 0 60920 63000.00000 0 -14266833.892 19016448.173 9254924.041 10 0 60920 63900.00000 0 -14865742.724 19767439.846 6239466.381 10 0 60920 64800.00000 0 -15156564.978 20277440.387 3102801.702 10 0 60920 65700.00000 0 -15169512.919 20500067.857 -94157.617 10 0 60920 66600.00000 0 -14944521.287 20397908.687 -3289282.541 10 0 60920 67500.00000 0 -14529356.622 19944247.841 -6420438.403 10 0 60920 68400.00000 0 -13977406.560 19124366.573 -9426699.234 10 0 60920 69300.00000 0 -13345243.008 17936351.306 -12249540.980 10 0 60920 70200.00000 0 -12690062.914 16391377.763 -14833989.437 10 0 60920 71100.00000 0 -12067115.739 14513456.700 -17129699.673 10 0 60920 72000.00000 0 -11527227.405 12338650.427 -19091944.958 10 0 60920 72900.00000 0 -11114526.397 9913791.830 -20682495.276 10 0 60920 73800.00000 0 -10864469.069 7294758.622 -21870367.750 10 0 60920 74700.00000 0 -10802248.374 4544374.485 -22632433.999 10 0 60920 75600.00000 0 -10941653.865 1730024.433 -22953872.477 10 0 60920 76500.00000 0 -11284431.466 -1078916.277 -22828456.977 10 0 60920 77400.00000 0 -11820170.248 -3813732.552 -22258675.827 10 0 60920 78300.00000 0 -12526720.967 -6408988.863 -21255679.662 10 0 60920 79200.00000 0 -13371128.542 -8805008.771 -19839059.064 10 0 60920 80100.00000 0 -14311038.780 -10950111.642 -18036456.715 10 0 60920 81000.00000 0 -15296519.587 -12802514.026 -15883021.951 10 0 60920 81900.00000 0 -16272219.323 -14331817.380 -13420718.718 10 0 60920 82800.00000 0 -17179770.653 -15520021.262 -10697500.877 10 0 60920 83700.00000 0 -17960337.965 -16362021.244 -7766371.405 10 0 60920 84600.00000 0 -18557200.334 -16865572.552 -4684344.364 10 0 60920 85500.00000 0 -18918260.674 -17050722.929 -1511330.481 10 0 60921 0.00000 0 -18998374.965 -16948740.615 1691031.126 10 0 60921 900.00000 0 -18761403.231 -16600584.372 4860573.558 10 0 60921 1800.00000 0 -18181895.784 -16054981.881 7935807.026 10 0 60921 2700.00000 0 -17246344.077 -15366198.654 10857110.182 10 0 60921 3600.00000 0 -15953943.529 -14591592.508 13567880.576 10 0 60921 4500.00000 0 -14316836.558 -13789057.144 16015623.959 10 0 60921 5400.00000 0 -12359825.617 -13014462.518 18152961.743 10 0 60921 6300.00000 0 -10119568.061 -12319199.372 19938537.991 10 0 60921 7200.00000 0 -7643285.975 -11747930.535 21337809.477 10 0 60921 8100.00000 0 -4987043.965 -11336642.616 22323704.669 10 0 60921 9000.00000 0 -2213665.426 -11111079.012 22877140.023 10 0 60921 9900.00000 0 609627.535 -11085619.221 22987384.486 10 0 60921 10800.00000 0 3413754.208 -11262650.934 22652265.846 10 0 60921 11700.00000 0 6130391.843 -11632461.091 21878215.164 10 0 60921 12600.00000 0 8694561.905 -12173650.653 20680148.290 10 0 60921 13500.00000 0 11047080.410 -12854056.335 19081186.215 10 0 60921 14400.00000 0 13136772.062 -13632141.531 17112218.709 10 0 60921 15300.00000 0 14922357.247 -14458799.096 14811318.570 10 0 60921 16200.00000 0 16373934.160 -15279491.396 12223016.487 10 0 60921 17100.00000 0 17473994.671 -16036638.560 9397449.275 10 0 60921 18000.00000 0 18217931.624 -16672155.127 6389396.862 10 0 60921 18900.00000 0 18614016.246 -17130028.445 3257225.817 10 0 60921 19800.00000 0 18682846.429 -17358829.928 61759.340 10 0 60921 20700.00000 0 18456288.860 -17314052.502 -3134904.431 10 0 60921 21600.00000 0 17975959.435 -16960174.415 -6270602.671 10 0 60921 22500.00000 0 17291306.054 -16272360.783 -9284322.610 10 0 60921 23400.00000 0 16457374.993 -15237729.272 -12117396.323 10 0 60921 24300.00000 0 15532355.629 -13856124.634 -14714651.419 10 0 60921 25200.00000 0 14575007.912 -12140367.566 -17025494.286 10 0 60921 26100.00000 0 13642082.044 -10115965.668 -19004903.895 10 0 60921 27000.00000 0 12785840.182 -7820297.112 -20614316.078 10 0 60921 27900.00000 0 12051785.582 -5301299.991 -21822380.510 10 0 60921 28800.00000 0 11476695.693 -2615721.329 -22605575.298 10 0 60921 29700.00000 0 11087042.644 173001.682 -22948667.041 10 0 60921 30600.00000 0 10897867.973 2997140.191 -22845007.438 10 0 60921 31500.00000 0 10912159.018 5787252.068 -22296660.768 10 0 60921 32400.00000 0 11120753.028 8474832.883 -21314359.988 10 0 60921 33300.00000 0 11502772.547 10994929.172 -19917292.572 10 0 60921 34200.00000 0 12026573.095 13288605.366 -18132720.560 10 0 60921 35100.00000 0 12651162.394 15305162.016 -15995442.553 10 0 60921 36000.00000 0 13328030.434 17004013.463 -13547108.526 10 0 60921 36900.00000 0 14003312.251 18356147.552 -10835401.236 10 0 60921 37800.00000 0 14620191.280 19345107.614 -7913100.684 10 0 60921 38700.00000 0 15121440.997 19967457.198 -4837050.387 10 0 60921 39600.00000 0 15451996.880 20232709.791 -1667046.215 10 0 60921 40500.00000 0 15561449.542 20162728.370 1535330.014 10 0 60921 41400.00000 0 15406353.481 19790621.899 4707908.977 10 0 60921 42300.00000 0 14952253.858 19159186.876 7789140.625 10 0 60921 43200.00000 0 14175345.830 18318961.021 10719285.668 10 0 60921 44100.00000 0 13063696.631 17325972.108 13441568.748 10 0 60921 45000.00000 0 11617979.052 16239277.339 15903271.239 10 0 60921 45900.00000 0 9851685.493 15118396.983 18056743.155 10 0 60921 46800.00000 0 7790813.401 14020749.896 19860315.497 10 0 60921 47700.00000 0 5473034.745 12999198.012 21279096.382 10 0 60921 48600.00000 0 2946383.421 12099801.936 22285636.765 10 0 60921 49500.00000 0 267514.126 11359880.693 22860453.941 10 0 60921 50400.00000 0 -2500396.305 10806455.875 22992403.655 10 0 60921 51300.00000 0 -5290019.551 10455144.439 22678894.268 10 0 60921 52200.00000 0 -8032421.922 10309545.856 21925939.135 10 0 60921 53100.00000 0 -10659682.086 10361148.972 20748046.043 10 0 60921 54000.00000 0 -13107473.550 10589762.531 19167945.314 10 0 60921 54900.00000 0 -15317506.226 10964451.727 17216160.933 10 0 60921 55800.00000 0 -17239726.786 11444942.135 14930431.857 10 0 60921 56700.00000 0 -18834187.101 11983432.856 12354993.389 10 0 60921 57600.00000 0 -20072503.363 12526743.419 9539731.243 10 0 60921 58500.00000 0 -20938845.022 13018704.667 6539223.545 10 0 60921 59400.00000 0 -21430412.038 13402693.188 3411688.440 10 0 60921 60300.00000 0 -21557380.078 13624202.261 217857.153 10 0 60921 61200.00000 0 -21342315.547 13633340.252 -2980205.771 10 0 60921 62100.00000 0 -20819084.723 13387149.901 -6120311.919 10 0 60921 63000.00000 0 -20031302.714 12851649.146 -9141364.142 10 0 60921 63900.00000 0 -19030387.619 12003505.546 -11984552.912 10 0 60921 64800.00000 0 -17873302.185 10831271.707 -14594509.719 10 0 60921 65700.00000 0 -16620078.690 9336127.653 -16920394.117 10 0 60921 66600.00000 0 -15331232.049 7532096.906 -18916892.352 10 0 60921 67500.00000 0 -14065170.959 5445725.472 -20545107.371 10 0 60921 68400.00000 0 -12875716.862 3115235.644 -21773322.353 10 0 60921 69300.00000 0 -11809835.849 589188.892 -22577622.505 10 0 60921 70200.00000 0 -10905679.447 -2075287.103 -22942362.864 10 0 60921 71100.00000 0 -10191016.865 -4814633.863 -22860472.998 10 0 60921 72000.00000 0 -9682124.598 -7561271.164 -22333592.786 10 0 60921 72900.00000 0 -9383179.702 -10246179.512 -21372036.854 10 0 60921 73800.00000 0 -9286181.574 -12801548.524 -19994588.619 10 0 60921 74700.00000 0 -9371404.666 -15163380.946 -18228128.260 10 0 60921 75600.00000 0 -9608361.954 -17273944.002 -16107102.201 10 0 60921 76500.00000 0 -9957237.392 -19083966.215 -13672844.805 10 0 60921 77400.00000 0 -10370725.683 -20554488.606 -10972765.946 10 0 60921 78300.00000 0 -10796200.540 -21658293.830 -8059420.771 10 0 60921 79200.00000 0 -11178118.746 -22380854.624 -4989480.306 10 0 60921 80100.00000 0 -11460557.489 -22720763.247 -1822623.562 10 0 60921 81000.00000 0 -11589776.972 -22689625.516 1379626.710 10 0 60921 81900.00000 0 -11516699.461 -22311425.582 4555101.474 10 0 60921 82800.00000 0 -11199199.693 -21621389.759 7642192.340 10 0 60921 83700.00000 0 -10604109.810 -20664398.657 10581044.369 10 0 60921 84600.00000 0 -9708854.238 -19493015.555 13314711.639 10 0 60921 85500.00000 0 -8502645.667 -18165214.692 15790253.484 10 0 60922 0.00000 0 -6987191.975 -16741905.384 17959750.625 10 0 60922 900.00000 0 -5176883.362 -15284355.025 19781223.512 10 0 60922 1800.00000 0 -3098453.532 -13851620.426 21219433.311 10 0 60922 2700.00000 0 -790125.678 -12498091.704 22246555.078 10 0 60922 3600.00000 0 1699720.242 -11271252.266 22842708.244 10 0 60922 4500.00000 0 4314305.519 -10209746.636 22996336.283 10 0 60922 5400.00000 0 6990564.419 -9341835.808 22704428.704 10 0 60922 6300.00000 0 9661523.728 -8684303.663 21972581.380 10 0 60922 7200.00000 0 12258853.132 -8241859.422 20814893.905 10 0 60922 8100.00000 0 14715482.378 -8007060.661 19253705.485 10 0 60922 9000.00000 0 16968178.124 -7960760.064 17319173.546 10 0 60922 9900.00000 0 18959974.605 -8073057.365 15048702.093 10 0 60922 10800.00000 0 20642357.894 -8304716.983 12486229.597 10 0 60922 11700.00000 0 21977113.215 -8608992.305 9681388.865 10 0 60922 12600.00000 0 22937758.245 -8933780.283 6688554.057 10 0 60922 13500.00000 0 23510502.238 -9224015.882 3565792.398 10 0 60922 14400.00000 0 23694690.305 -9424205.298 373740.349 10 0 60922 15300.00000 0 23502713.583 -9480990.590 -2825574.128 10 0 60922 16200.00000 0 22959388.481 -9345636.499 -5969940.128 10 0 60922 17100.00000 0 22100830.606 -8976333.121 -8998179.218 10 0 60922 18000.00000 0 20972870.477 -8340215.515 -11851343.259 10 0 60922 18900.00000 0 19629077.704 -7415013.105 -14473870.438 10 0 60922 19800.00000 0 18128477.028 -6190257.259 -16814676.068 10 0 60922 20700.00000 0 16533052.822 -4667994.152 -18828155.991 10 0 60922 21600.00000 0 14905147.652 -2862971.009 -20475082.315 10 0 60922 22500.00000 0 13304864.925 -802286.170 -21723373.467 10 0 60922 23400.00000 0 11787585.406 1475483.742 -22548723.174 10 0 60922 24300.00000 0 10401702.341 3921644.142 -22935075.981 10 0 60922 25200.00000 0 9186670.489 6479174.213 -22874940.028 10 0 60922 26100.00000 0 8171450.859 9084875.710 -22369531.112 10 0 60922 27000.00000 0 7373415.990 11671789.450 -21428745.450 10 0 60922 27900.00000 0 6797761.009 14171778.828 -20070961.929 10 0 60922 28800.00000 0 6437444.112 16518172.644 -18322678.001 10 0 60922 29700.00000 0 6273657.720 18648357.034 -16217986.646 10 0 60922 30600.00000 0 6276808.990 20506208.556 -13797904.964 10 0 60922 31500.00000 0 6407966.832 22044267.025 -11109567.911 10 0 60922 32400.00000 0 6620712.902 23225557.899 -8205303.382 10 0 60922 33300.00000 0 6863316.950 24024988.713 -5141607.180 10 0 60922 34200.00000 0 7081143.372 24430262.126 -1978038.456 10 0 60922 35100.00000 0 7219186.172 24442268.569 1223942.310 10 0 60922 36000.00000 0 7224624.339 24074943.444 4402169.671 10 0 60922 36900.00000 0 7049289.092 23354596.320 7494980.213 10 0 60922 37800.00000 0 6651938.412 22318741.671 10442406.557 10 0 60922 38700.00000 0 6000242.748 21014481.460 13187335.258 10 0 60922 39600.00000 0 5072398.136 19496508.294 15676606.413 10 0 60922 40500.00000 0 3858298.827 17824813.443 17862034.318 10 0 60922 41400.00000 0 2360220.047 16062195.769 19701330.278 10 0 60922 42300.00000 0 592981.946 14271675.505 21158910.750 10 0 60922 43200.00000 0 -1416412.694 12513920.230 22206576.329 10 0 60922 44100.00000 0 -3629652.760 10844789.486 22824049.582 10 0 60922 45000.00000 0 -5998469.892 9313099.260 22999362.241 10 0 60922 45900.00000 0 -8466411.584 7958698.230 22729084.989 10 0 60922 46800.00000 0 -10970964.349 6810934.730 22018395.693 10 0 60922 47700.00000 0 -13445940.463 5887577.316 20880984.688 10 0 60922 48600.00000 0 -15824030.993 5194233.132 19338798.442 10 0 60922 49500.00000 0 -18039420.606 4724287.886 17421625.691 10 0 60922 50400.00000 0 -20030356.777 4459369.737 15166532.923 10 0 60922 51300.00000 0 -21741567.400 4370317.717 12617158.852 10 0 60922 52200.00000 0 -23126426.586 4418614.284 9822880.222 10 0 60922 53100.00000 0 -24148778.278 4558222.032 6837863.950 10 0 60922 54000.00000 0 -24784341.174 4737747.469 3720023.064 10 0 60922 54900.00000 0 -25021635.447 4902840.553 529896.060 10 0 60922 55800.00000 0 -24862391.636 4998728.401 -2670528.733 10 0 60922 56700.00000 0 -24321423.613 4972775.418 -5819020.784 10 0 60922 57600.00000 0 -23425970.189 4776960.539 -8854323.036 10 0 60922 58500.00000 0 -22214532.379 4370165.438 -11717351.180 10 0 60922 59400.00000 0 -20735254.881 3720175.279 -14352352.278 10 0 60922 60300.00000 0 -19043919.688 2805305.618 -16707999.285 10 0 60922 61200.00000 0 -17201636.395 1615584.855 -18738399.182 10 0 60922 62100.00000 0 -15272326.590 153440.477 -20403994.371 10 0 60922 63000.00000 0 -13320108.437 -1566141.563 -21672339.219 10 0 60922 63900.00000 0 -11406691.723 -3515992.585 -22518736.212 10 0 60922 64800.00000 0 -9588892.969 -5657657.545 -22926719.182 10 0 60922 65700.00000 0 -7916374.972 -7942775.494 -22888374.192 10 0 60922 66600.00000 0 -6429705.385 -10314887.000 -22404491.924 10 0 60922 67500.00000 0 -5158815.321 -12711593.412 -21484548.820 10 0 60922 68400.00000 0 -4121921.753 -15066977.969 -20146517.594 10 0 60922 69300.00000 0 -3324957.874 -17314187.618 -18416511.116 10 0 60922 70200.00000 0 -2761533.892 -19388067.705 -16328266.910 10 0 60922 71100.00000 0 -2413428.299 -21227739.431 -13922482.709 10 0 60922 72000.00000 0 -2251587.192 -22779012.371 -11246016.409 10 0 60922 72900.00000 0 -2237587.758 -23996531.349 -8350966.517 10 0 60922 73800.00000 0 -2325502.419 -24845568.247 -5293651.528 10 0 60922 74700.00000 0 -2464083.384 -25303384.299 -2133508.696 10 0 60922 75600.00000 0 -2599173.881 -25360106.656 1068065.743 10 0 60922 76500.00000 0 -2676243.049 -25019083.541 4248911.865 10 0 60922 77400.00000 0 -2642936.524 -24296704.243 7347313.134 10 0 60922 78300.00000 0 -2451534.387 -23221692.733 10303191.635 10 0 60922 79200.00000 0 -2061212.426 -21833905.589 13059268.276 10 0 60922 80100.00000 0 -1440011.218 -20182685.532 15562165.750 10 0 60922 81000.00000 0 -566430.119 -18324840.073 17763433.491 10 0 60922 81900.00000 0 569420.917 -16322330.007 19620475.654 10 0 60922 82800.00000 0 1965160.155 -14239764.123 21097365.173 10 0 60922 83700.00000 0 3605991.591 -12141804.040 22165529.331 10 0 60922 84600.00000 0 5465087.824 -10090586.353 22804294.686 10 0 60922 85500.00000 0 7504483.233 -8143268.223 23001281.783 10 0 60923 0.00000 0 9676441.385 -6349797.340 22752642.765 10 0 60923 900.00000 0 11925242.465 -4750996.698 22063137.398 10 0 60923 1800.00000 0 14189315.156 -3377044.969 20946046.426 10 0 60923 2700.00000 0 16403629.914 -2246411.478 19422922.989 10 0 60923 3600.00000 0 18502252.870 -1365291.750 17523186.283 10 0 60923 4500.00000 0 20420956.565 -727565.713 15283564.182 10 0 60923 5400.00000 0 22099779.655 -315280.190 12747394.288 10 0 60923 6300.00000 0 23485429.388 -99635.427 9963795.649 10 0 60923 7200.00000 0 24533426.670 -42434.340 6986726.029 10 0 60923 8100.00000 0 25209903.668 -97933.599 3873942.063 10 0 60923 9000.00000 0 25492977.990 -215018.548 685881.833 10 0 60923 9900.00000 0 25373644.817 -339609.927 -2515508.614 10 0 60923 10800.00000 0 24856148.445 -417200.215 -5667981.898 10 0 60923 11700.00000 0 23957816.499 -395411.481 -8710205.140 10 0 60923 12600.00000 0 22708362.811 -226465.359 -11582960.590 10 0 60923 13500.00000 0 21148687.470 130540.773 -14230306.784 10 0 60923 14400.00000 0 19329223.992 707649.355 -16600676.709 10 0 60923 15300.00000 0 17307902.828 1526435.555 -18647890.649 10 0 60923 16200.00000 0 15147816.754 2596847.183 -20332063.234 10 0 60923 17100.00000 0 12914686.293 3916542.228 -21620386.463 10 0 60923 18000.00000 0 10674231.740 5470753.469 -22487773.018 10 0 60923 18900.00000 0 8489562.155 7232687.162 -22917347.195 10 0 60923 19800.00000 0 6418690.770 9164440.161 -22900773.855 10 0 60923 20700.00000 0 4512280.729 11218397.760 -22438419.101 10 0 60923 21600.00000 0 2811715.117 13339054.196 -21539339.765 10 0 60923 22500.00000 0 1347571.333 15465179.890 -20221102.147 10 0 60923 23400.00000 0 138562.657 17532244.727 -18509433.865 10 0 60923 24300.00000 0 -809010.018 19474995.956 -16437715.901 10 0 60923 25200.00000 0 -1501274.961 21230082.639 -14046325.102 10 0 60923 26100.00000 0 -1956276.000 22738616.674 -11381840.383 10 0 60923 27000.00000 0 -2202952.153 23948563.073 -8496128.573 10 0 60923 27900.00000 0 -2279655.422 24816859.427 -5445328.219 10 0 60923 28800.00000 0 -2232271.124 25311176.007 -2288751.779 10 0 60923 29700.00000 0 -2112021.835 25411243.155 912271.876 10 0 60923 30600.00000 0 -1973049.072 25109691.018 4095591.585 10 0 60923 31500.00000 0 -1869876.051 24412367.216 7199440.974 10 0 60923 32400.00000 0 -1854859.469 23338120.080 10163634.819 10 0 60923 33300.00000 0 -1975738.368 21918057.441 12930731.490 10 0 60923 34200.00000 0 -2273383.679 20194312.797 15447139.195 10 0 60923 35100.00000 0 -2779843.302 18218371.016 17664145.175 10 0 60923 36000.00000 0 -3516764.866 16049023.746 19538848.815 10 0 60923 36900.00000 0 -4494262.441 13750039.715 21034981.572 10 0 60923 37800.00000 0 -5710274.778 11387646.437 22123599.084 10 0 60923 38700.00000 0 -7150442.370 9027927.237 22783633.156 10 0 60923 39600.00000 0 -8788509.110 6734240.639 23002293.925 10 0 60923 40500.00000 0 -10587232.792 4564767.925 22775315.175 10 0 60923 41400.00000 0 -12499767.816 2570289.259 22107038.371 10 0 60923 42300.00000 0 -14471463.999 792279.326 21010333.795 10 0 60923 43200.00000 0 -16442008.200 -738599.632 19506359.803 10 0 60923 44100.00000 0 -18347821.208 -2003545.782 17624164.047 10 0 60923 45000.00000 0 -20124611.382 -2996163.717 15400133.268 10 0 60923 45900.00000 0 -21709979.703 -3722486.275 12877301.011 10 0 60923 46800.00000 0 -23045968.184 -4200471.494 10104525.363 10 0 60923 47700.00000 0 -24081445.328 -4458995.818 7135551.460 10 0 60923 48600.00000 0 -24774228.545 -4536385.909 4027975.968 10 0 60923 49500.00000 0 -25092853.894 -4478550.835 842133.002 10 0 60923 50400.00000 0 -25017917.817 -4336793.567 -2360077.149 10 0 60923 51300.00000 0 -24542933.278 -4165394.604 -5516393.563 10 0 60923 52200.00000 0 -23674662.911 -4019070.500 -8565410.654 10 0 60923 53100.00000 0 -22432913.884 -3950415.779 -11447780.105 10 0 60923 54000.00000 0 -20849801.914 -4007437.673 -14107374.508 10 0 60923 54900.00000 0 -18968514.474 -4231289.431 -16492389.132 10 0 60923 55800.00000 0 -16841624.496 -4654299.604 -18556359.390 10 0 60923 56700.00000 0 -14529025.033 -5298382.194 -20259073.486 10 0 60923 57600.00000 0 -12095571.347 -6173896.328 -21567361.841 10 0 60923 58500.00000 0 -9608529.289 -7279005.003 -22455747.535 10 0 60923 59400.00000 0 -7134936.876 -8599561.117 -22906944.930 10 0 60923 60300.00000 0 -4738989.461 -10109526.655 -22912196.718 10 0 60923 61200.00000 0 -2479557.764 -11771908.137 -22471442.957 10 0 60923 62100.00000 0 -407942.168 -13540169.564 -21593318.966 10 0 60923 63000.00000 0 1434043.464 -15360063.884 -20294982.415 10 0 60923 63900.00000 0 3015579.236 -17171806.151 -18601773.204 10 0 60923 64800.00000 0 4317876.102 -18912497.182 -16546713.143 10 0 60923 65700.00000 0 5334700.357 -20518695.843 -14169855.486 10 0 60923 66600.00000 0 6072365.509 -21929031.789 -11517497.426 10 0 60923 67500.00000 0 6549193.921 -23086748.822 -8641271.401 10 0 60923 68400.00000 0 6794472.925 -23942071.971 -5597133.377 10 0 60923 69300.00000 0 6846951.436 -24454298.908 -2444268.473 10 0 60923 70200.00000 0 6752942.365 -24593528.069 756064.201 10 0 60923 71100.00000 0 6564112.615 -24341951.277 3941724.497 10 0 60923 72000.00000 0 6335055.330 -23694657.131 7050898.288 10 0 60923 72900.00000 0 6120747.955 -22659912.108 10023294.951 10 0 60923 73800.00000 0 5974004.065 -21258908.234 12801312.036 10 0 60923 74700.00000 0 5943026.770 -19524988.515 15331144.766 10 0 60923 75600.00000 0 6069166.868 -17502382.964 17563819.469 10 0 60923 76500.00000 0 6384979.936 -15244508.165 19456131.761 10 0 60923 77400.00000 0 6912663.835 -12811901.147 20971472.350 10 0 60923 78300.00000 0 7662942.033 -10269873.087 22080525.652 10 0 60923 79200.00000 0 8634439.576 -7685979.511 22761828.824 10 0 60923 80100.00000 0 9813578.097 -5127410.911 23002181.410 10 0 60923 81000.00000 0 11174994.901 -2658410.647 22796898.409 10 0 60923 81900.00000 0 12682469.541 -337825.714 22149902.231 10 0 60923 82800.00000 0 14290320.484 1783109.531 21073651.771 10 0 60923 83700.00000 0 15945215.035 3662666.131 19588909.501 10 0 60923 84600.00000 0 17588318.501 5270112.367 17724350.275 10 0 60923 85500.00000 0 19157694.305 6586743.524 15516018.298 99